San Antonio, TX

3:47 AM CDT on July 31, 2016 (GMT -0500)
Stinson Municipal

Weather History for KSSF - February, 2012

Change the Weather History Date:

Monday, February 27, 2012

  Actual Average Record
Temperature  
Mean Temperature 62 °F -  
Max Temperature 64 °F 64 °F 91 °F (2011)
Min Temperature 59 °F 46 °F 19 °F (2002)
Degree Days  
Heating Degree Days 4    
Growing Degree Days 12 (Base 50)    
Moisture  
Dew Point 61 °F    
Average Humidity 95    
Maximum Humidity 100    
Minimum Humidity 77    
Precipitation  
Precipitation 0.07 in - - ()
Sea Level Pressure  
Sea Level Pressure 30.14 in    
Wind  
Wind Speed 6 mph (East)    
Max Wind Speed 13 mph    
Max Gust Speed -    
Visibility 5 miles    
Events Rain    
Averages and records for this station are not official NWS values.
T = Trace of Precipitation, MM = Missing Value Source: NWS Daily Summary

Daily Weather History Graph

Daily Weather History Graph

Search for Another Location

Airport or City:

Trip Planner

Search our weather history database for the weather conditions in past years. The results will help you decide how hot, cold, wet, or windy it might be!

Date:

Astronomy

Feb. 27, 2012 Rise Set
Actual Time 7:01 AM CST 6:31 PM CST
Civil Twilight 6:38 AM CST 6:55 PM CST
Nautical Twilight 6:10 AM CST 7:23 PM CST
Astronomical Twilight 5:42 AM CST 7:50 PM CST
Moon 10:02 AM CST (2/27) 11:54 PM CST (2/27)
Length of Visible Light 12h 17m
Length of Day
11h 29m
Waxing Crescent, 29% of the Moon is Illuminated
Feb 27
Waxing Crescent
Feb 29
First Quarter
Mar 8
Full
Mar 14
Last Quarter
Mar 22
New

Hourly Weather History & Observations

Time (CST) Temp. Dew Point Humidity Pressure Visibility Wind Dir Wind Speed Gust Speed Precip Events Conditions
12:03 AM 60.8 °F 53.6 °F 77% 30.11 in 10.0 mi ESE 6.9 mph - N/A   Overcast
12:53 AM 59.0 °F 54.0 °F 83% 30.10 in 10.0 mi ESE 4.6 mph - N/A   Overcast
1:53 AM 59.0 °F 55.0 °F 87% 30.10 in 10.0 mi ESE 4.6 mph - N/A   Overcast
2:53 AM 59.0 °F 55.9 °F 90% 30.10 in 10.0 mi ESE 3.5 mph - N/A   Overcast
3:53 AM 59.0 °F 57.0 °F 93% 30.10 in 10.0 mi Calm Calm - N/A   Overcast
4:01 AM 59.0 °F 57.2 °F 94% 30.11 in 10.0 mi Calm Calm - N/A   Overcast
4:12 AM 59.0 °F 57.2 °F 94% 30.11 in 10.0 mi SE 3.5 mph - N/A   Overcast
4:53 AM 60.1 °F 57.0 °F 90% 30.10 in 10.0 mi East 5.8 mph - N/A   Overcast
5:26 AM 59.0 °F 57.2 °F 94% 30.11 in 10.0 mi ESE 4.6 mph - N/A   Overcast
5:53 AM 60.1 °F 57.9 °F 93% 30.11 in 10.0 mi East 3.5 mph - N/A   Overcast
6:53 AM 61.0 °F 60.1 °F 97% 30.12 in 6.0 mi East 5.8 mph - N/A   Overcast
7:53 AM 61.0 °F 59.0 °F 93% 30.15 in 5.0 mi East 4.6 mph - N/A   Overcast
8:53 AM 61.0 °F 60.1 °F 97% 30.18 in 4.0 mi ENE 6.9 mph - 0.00 in   Overcast
9:28 AM 62.6 °F 60.8 °F 94% 30.19 in 2.0 mi East 4.6 mph - 0.00 in Rain Light Rain
9:43 AM 62.6 °F 60.8 °F 94% 30.20 in 4.0 mi ENE 6.9 mph - 0.00 in   Overcast
9:53 AM 62.1 °F 61.0 °F 96% 30.19 in 3.0 mi East 6.9 mph - 0.00 in Rain Light Rain
10:01 AM 62.6 °F 60.8 °F 94% 30.20 in 2.0 mi East 8.1 mph - 0.00 in Rain Light Rain
10:45 AM 62.6 °F 62.6 °F 100% 30.21 in 1.5 mi East 5.8 mph - 0.00 in Rain Light Rain
10:53 AM 63.0 °F 62.1 °F 97% 30.20 in 1.2 mi East 6.9 mph - 0.00 in Rain Light Rain
11:45 AM 64.4 °F 62.6 °F 94% 30.19 in 3.0 mi ENE 8.1 mph - 0.03 in Rain Light Rain
11:53 AM 64.0 °F 63.0 °F 96% 30.18 in 2.5 mi ENE 8.1 mph - 0.03 in Rain Light Rain
12:07 PM 62.6 °F 62.6 °F 100% 30.19 in 4.0 mi East 8.1 mph - 0.00 in Rain Light Rain
12:18 PM 64.4 °F 62.6 °F 94% 30.18 in 2.0 mi East 6.9 mph - 0.00 in Rain Light Rain
12:36 PM 64.4 °F 62.6 °F 94% 30.18 in 1.2 mi East 8.1 mph - 0.01 in Rain Light Rain
12:53 PM 64.0 °F 63.0 °F 96% 30.17 in 2.0 mi East 6.9 mph - 0.02 in Rain Light Rain
1:02 PM 64.4 °F 62.6 °F 94% 30.17 in 6.0 mi East 6.9 mph - 0.00 in Rain Light Rain
1:53 PM 64.9 °F 63.0 °F 93% 30.13 in 8.0 mi ENE 8.1 mph - 0.00 in   Overcast
2:25 PM 64.4 °F 62.6 °F 94% 30.13 in 7.0 mi ENE 4.6 mph - 0.00 in Rain Light Rain
2:44 PM 64.4 °F 62.6 °F 94% 30.13 in 1.8 mi East 6.9 mph - 0.00 in Rain Light Rain
2:53 PM 64.0 °F 63.0 °F 96% 30.12 in 1.5 mi East 5.8 mph - 0.01 in Rain Light Rain
2:59 PM 64.4 °F 62.6 °F 94% 30.12 in 2.0 mi East 6.9 mph - 0.00 in Rain Light Rain
3:21 PM 64.4 °F 62.6 °F 94% 30.12 in 6.0 mi ENE 4.6 mph - 0.00 in Rain Light Rain
3:40 PM 64.4 °F 62.6 °F 94% 30.12 in 7.0 mi ENE 6.9 mph - 0.00 in   Overcast
3:53 PM 64.0 °F 63.0 °F 96% 30.11 in 4.0 mi ENE 5.8 mph - 0.00 in Rain Light Rain
4:44 PM 64.4 °F 62.6 °F 94% 30.11 in 2.0 mi East 6.9 mph - 0.00 in Rain Light Rain
4:53 PM 64.9 °F 63.0 °F 93% 30.10 in 5.0 mi East 6.9 mph - 0.00 in Rain Light Rain
5:53 PM 64.9 °F 63.0 °F 93% 30.11 in 8.0 mi East 5.8 mph - 0.00 in   Overcast
6:29 PM 64.4 °F 64.4 °F 100% 30.12 in 2.5 mi ESE 6.9 mph - 0.00 in Rain Light Rain
6:31 PM 64.4 °F 64.4 °F 100% 30.12 in 2.5 mi ESE 5.8 mph - 0.00 in Rain Light Rain
6:33 PM 64.4 °F 64.4 °F 100% 30.12 in 3.0 mi ESE 5.8 mph - 0.00 in Rain Light Rain
6:53 PM 64.0 °F 64.0 °F 100% 30.12 in 6.0 mi ESE 4.6 mph - 0.00 in Rain Light Rain
7:06 PM 64.4 °F 64.4 °F 100% 30.13 in 9.0 mi SSE 3.5 mph - 0.00 in   Overcast
7:13 PM 64.4 °F 64.4 °F 100% 30.13 in 7.0 mi SE 4.6 mph - 0.00 in Rain Light Rain
7:46 PM 64.4 °F 62.6 °F 94% 30.14 in 8.0 mi ESE 5.8 mph - 0.00 in Rain Light Rain
7:53 PM 64.0 °F 63.0 °F 96% 30.13 in 6.0 mi East 5.8 mph - 0.00 in Rain Light Rain
8:08 PM 64.4 °F 62.6 °F 94% 30.14 in 8.0 mi East 5.8 mph - 0.00 in   Overcast
8:53 PM 64.0 °F 63.0 °F 96% 30.13 in 6.0 mi East 5.8 mph - 0.00 in   Overcast
9:31 PM 64.4 °F 62.6 °F 94% 30.15 in 5.0 mi ESE 5.8 mph - 0.01 in Rain Light Rain
9:53 PM 63.0 °F 63.0 °F 100% 30.15 in 4.0 mi ESE 10.4 mph - 0.01 in   Overcast
10:53 PM 63.0 °F 62.1 °F 97% 30.14 in 3.0 mi ESE 12.7 mph - 0.00 in Rain Light Rain
11:14 PM 62.6 °F 62.6 °F 100% 30.14 in 2.5 mi East 9.2 mph - N/A   Overcast
11:53 PM 62.1 °F 62.1 °F 100% 30.12 in 2.0 mi ESE 8.1 mph - 0.00 in   Overcast